Location: Burgerwiesen
(48.6500°N, 15.6167°E)
Time: 17:56:52
(UTC+00:00)

STARLINK-1236 - Pass Details

Date: 09 April 2020
Orbit: 549 x 550 km, 53.0° (Epoch: 29 May)

Event Time Altitude Azimuth Distance (km) Brightness Sun altitude
Rises 19:15:03 0° 295° (WNW) 2,734 9.0 -15.2°
Reaches altitude 10° 19:17:17 10° 295° (WNW) 1,838 7.6 -15.5°
Maximum altitude 19:21:28 89° 208° (SSW) 560 3.6 -16.1°
Enters shadow 19:23:17 33° 117° (ESE) 944 4.2 -16.3°
